This demonstration page uses our WeatherBlox Daily Observations layout. Learn more.

Left ArrowRight Arrow

36.17497, -115.13722

Hourly Observations for August 30, 2020

Temp ( °F °C ) Dew Point ( °F °C ) Humidity (%) Winds ( mph kmh ) Pressure ( in mb ) Visibility ( mi km ) Precip ( " mm )
12:53 am 00:53 Clear 90 32.2 23 -5 9 9 SW 12 19 29.75 1008 10 16 N/A
1:53 am 01:53 Clear 89 31.7 21 -6.1 8 8 WSW 5 7 29.75 1008 10 16 N/A
2:53 am 02:53 Clear 85 29.4 20 -6.7 9 9 NNW 3 6 29.77 1008 10 16 N/A
3:53 am 03:53 Clear 81 27.2 30 -1.1 16 16 WNW 3 6 29.77 1008 10 16 N/A
4:53 am 04:53 Clear 79 26.1 29 -1.7 16 16 NNW 3 6 29.78 1008 10 16 N/A
5:53 am 05:53 Clear 79 26.1 31 -0.6 17 17 W 7 11 29.79 1009 10 16 N/A
6:53 am 06:53 Sunny 78 25.6 29 -1.7 16 16 WNW 5 7 29.80 1009 10 16 N/A
7:53 am 07:53 Sunny 82 27.8 29 -1.7 14 14 N N/A 29.82 1010 10 16 N/A
8:53 am 08:53 Sunny 88 31.1 31 -0.6 13 13 SSE 6 9 29.83 1010 10 16 N/A
9:53 am 09:53 Sunny 91 32.8 36 2.2 14 14 SE 6 9 29.83 1010 10 16 N/A
10:53 am 10:53 Sunny 94 34.4 37 2.8 14 14 undefined N/A 29.83 1010 10 16 N/A
11:53 am 11:53 Sunny 98 36.7 24 -4.4 7 7 VRB 3 6 29.80 1009 10 16 N/A
12:53 pm 12:53 Sunny 99 37.2 21 -6.1 6 6 SSE 5 7 29.78 1008 10 16 N/A
1:53 pm 13:53 Sunny 101 38.3 21 -6.1 6 6 VRB 6 9 29.75 1008 10 16 N/A
2:53 pm 14:53 Sunny 103 39.4 14 -10 4 4 ESE 8 13 29.72 1006 10 16 N/A
3:53 pm 15:53 Sunny 103 39.4 14 -10 4 4 undefined N/A 29.70 1006 10 16 N/A
4:53 pm 16:53 Sunny 103 39.4 15 -9.4 4 4 VRB 5 7 29.68 1005 10 16 N/A
5:53 pm 17:53 Sunny 102 38.9 15 -9.4 4 4 VRB 5 7 29.67 1005 10 16 N/A
6:53 pm 18:53 Sunny 100 37.8 13 -10.6 4 4 SSE 5 7 29.67 1005 10 16 N/A
7:53 pm 19:53 Clear 98 36.7 16 -8.9 5 5 WSW 9 15 29.67 1005 10 16 N/A
8:53 pm 20:53 Clear 95 35 17 -8.3 6 6 WSW 9 15 29.68 1005 10 16 N/A
9:53 pm 21:53 Clear 93 33.9 18 -7.8 6 6 NW 3 6 29.70 1006 10 16 N/A
10:53 pm 22:53 Clear 85 29.4 21 -6.1 9 9 E 5 7 29.72 1006 10 16 N/A
11:53 pm 23:53 Clear 88 31.1 15 -9.4 7 7 N N/A 29.72 1006 10 16 N/A

Powered by AerisWeather